Wind_Speed
12 11 17 16 13 8 8 9 9 11 17 9 9 8 11 9 11 12 16 13 16 17 16 17 21 26 22 23 25 18 15 12 11 13 17 21 16 16 20 18 19 21 24 19
14 16 14 13 14 12 8 11 15 7 11 10 7 8 12 11 9 9 9 11 13 14 14 16 18 18 20 22 22 20 17 17 16 13 12 14 15 18 22 20 19 20 23 22
10 13 15 16 15 13 7 15 17 11 11 7 10 8 13 9 10 9 8 8 9 10 10 12 16 20 22 23 21 20 26 24 21 20 19 16 18 16 17 16 22 20 17 25
8 15 14 16 15 14 4 19 13 9 6 4 8 5 6 9 7 13 9 8 9 11 13 12 11 14 18 20 22 25 28 31 27 26 26 25 24 22 16 19 22 25 25 25
10 12 13 17 16 13 13 19 9 7 6 7 1 3 8 7 4 15 13 13 13 15 16 17 17 17 17 18 19 21 24 25 26 26 27 27 28 26 23 23 20 18 17 16
9 10 13 17 14 11 18 16 9 6 4 2 0 2 1 4 6 16 18 18 19 19 17 18 19 20 21 21 20 21 21 21 21 22 24 25 26 26 26 25 22 21 19 15
9 8 13 14 15 13 17 14 3 3 2 1 4 4 8 16 14 14 14 16 18 19 19 19 19 20 20 21 22 22 22 23 23 23 24 25 25 25 24 24 23 24 23 22
7 3 12 14 13 12 17 13 5 2 4 5 10 3 6 15 16 11 13 16 18 18 18 21 24 24 21 19 18 20 21 22 23 24 25 26 27 27 26 25 24 22 22 24
8 3 8 11 10 12 10 11 8 2 6 5 3 5 12 10 11 11 14 16 16 16 20 21 26 28 24 19 17 16 18 20 22 23 23 25 27 27 29 28 26 23 22 20
10 2 6 10 6 7 9 9 5 5 4 5 5 8 8 12 13 18 16 12 13 17 18 20 25 24 20 16 13 13 14 14 16 18 20 23 24 26 28 30 30 29 27 24
10 5 7 7 5 7 6 6 4 3 1 1 4 4 9 14 17 18 13 10 13 16 15 14 22 24 20 14 12 8 7 9 10 12 15 19 22 23 25 28 30 30 30 29
8 4 8 9 7 6 4 5 3 2 2 4 4 9 8 15 18 16 10 12 14 15 14 15 19 20 23 16 13 11 7 4 4 5 7 11 16 20 22 23 26 28 28 28
8 5 5 5 4 8 8 9 7 8 9 9 3 7 17 17 16 11 10 11 12 15 15 14 14 17 20 18 11 10 10 8 6 5 4 4 5 9 13 17 19 24 26 25
9 6 7 6 14 19 23 19 14 13 7 5 18 22 13 17 19 13 9 10 12 14 15 14 13 15 19 20 8 5 8 7 7 6 4 3 2 2 6 11 16 20 23 24
7 9 13 13 18 23 23 19 18 20 18 14 21 25 16 13 7 6 7 9 11 13 13 13 12 16 19 18 12 8 6 5 6 7 3 2 3 0 2 6 9 12 18 21
11 8 18 21 10 9 20 20 17 16 17 21 19 18 9 3 4 5 6 9 11 11 11 9 10 13 15 15 13 9 10 7 5 4 2 1 3 6 8 5 2 7 11 14
13 9 13 7 13 22 11 1 7 11 12 14 15 11 9 7 6 7 8 9 10 10 9 8 7 9 10 11 14 13 10 8 7 6 5 4 3 8 9 9 5 3 9 12
17 14 10 8 11 3 3 11 12 12 11 10 9 9 10 8 6 7 8 9 9 9 8 8 7 6 10 9 10 11 12 12 11 11 11 7 3 9 9 8 9 3 1 6
20 15 7 5 4 17 11 1 4 9 8 6 9 9 10 6 5 7 8 8 7 8 7 7 7 5 7 8 9 13 13 13 13 16 17 15 11 16 18 16 19 19 14 20
15 14 12 7 2 4 4 5 6 10 3 8 8 7 7 9 8 8 8 9 9 7 7 6 7 5 4 6 7 11 13 13 14 17 17 22 26 26 23 18 16 15 16 17
17 17 19 18 9 11 14 13 7 4 7 10 8 8 7 8 11 9 9 9 10 10 8 6 6 5 3 3 4 7 9 9 12 13 13 14 16 19 18 18 17 17 18 18
15 11 13 13 10 10 4 8 6 10 11 10 10 10 11 11 11 11 11 11 11 12 11 7 5 4 3 2 2 4 6 7 9 11 11 12 15 16 17 17 18 18 18 18
22 27 15 16 6 8 1 7 11 16 11 14 14 12 14 13 12 15 13 13 12 13 13 11 8 5 3 2 2 3 5 6 7 8 10 12 13 14 15 15 16 16 15 14
25 26 28 26 24 23 19 13 15 15 17 20 19 15 12 15 17 14 15 14 14 13 14 13 10 8 6 5 6 6 7 9 8 7 8 9 10 10 11 11 11 11 10 9
27 22 28 32 25 23 21 18 19 22 22 22 18 18 21 21 19 18 16 17 16 16 15 15 13 11 9 10 9 9 10 13 12 11 10 9 8 7 6 6 5 5 4 3
38 34 34 32 24 23 25 27 23 24 25 23 27 30 31 30 25 25 22 20 21 20 18 16 15 14 13 13 14 14 13 15 16 14 13 12 10 9 8 8 7 7 6 5
Wind_Direction
22 13 28 21 20 12 8 341 326 309 310 328 322 317 328 326 297 287 280 283 278 278 282 286 281 285 292 296 299 276 295 305 289 310 281 244 288 229 213 231 232 241 252 254
15 24 22 14 13 1 351 341 335 326 327 328 299 306 319 338 341 325 310 300 295 290 285 278 274 272 277 279 277 259 269 285 281 279 280 283 312 275 208 226 234 235 246 248
32 19 13 11 6 7 310 337 341 325 341 6 346 302 269 323 335 347 354 343 336 319 302 286 279 277 272 270 267 265 257 266 265 269 269 268 280 274 251 282 261 219 240 236
21 13 10 13 0 356 336 337 340 349 1 11 335 322 241 272 337 322 338 347 345 337 331 323 302 282 271 269 265 262 252 260 263 263 265 268 269 267 256 269 247 265 254 249
22 14 6 9 0 0 346 345 347 360 360 335 314 280 130 265 316 292 320 322 323 319 315 309 305 298 287 280 272 263 258 258 259 260 259 260 262 262 258 262 252 253 249 233
24 17 10 5 359 7 4 351 13 10 11 319 133 311 144 244 244 284 309 313 318 318 315 310 306 299 292 287 281 275 269 264 257 253 252 249 247 249 249 249 241 250 262 258
15 19 8 7 5 10 13 25 334 330 341 179 318 308 285 295 313 301 304 313 316 320 322 320 316 309 297 287 280 275 270 265 260 252 247 244 239 241 241 239 239 238 245 250
18 4 6 1 9 4 27 37 52 289 345 309 302 270 279 312 316 314 315 316 317 325 329 327 327 326 314 295 277 271 267 263 257 254 249 247 242 237 237 237 237 238 239 243
1 343 6 357 3 14 11 14 19 9 300 290 243 275 305 337 340 331 326 321 324 331 332 334 331 328 327 314 293 277 267 260 257 255 251 247 246 241 238 238 239 238 240 232
356 341 353 352 359 9 28 20 12 24 9 322 322 304 285 328 340 335 329 331 333 335 338 347 349 346 339 333 317 295 282 269 261 257 256 254 250 245 241 238 238 238 238 236
347 349 336 343 347 335 355 19 21 0 196 294 308 280 316 333 336 335 330 334 336 335 337 342 354 357 357 346 340 329 296 285 277 265 257 252 250 245 240 236 235 237 238 241
353 338 335 315 327 323 313 326 344 176 276 254 267 280 318 336 336 337 342 336 337 334 336 335 342 354 358 353 345 343 334 317 295 291 279 263 250 245 241 237 232 231 234 239
343 329 346 318 322 328 318 321 299 285 266 230 211 284 321 329 332 327 328 328 337 338 341 344 349 356 2 357 342 347 352 345 340 324 315 311 277 241 234 232 230 229 230 234
318 304 301 267 288 297 298 300 295 275 254 255 264 305 315 318 308 298 308 332 345 345 345 348 355 0 3 1 356 351 6 12 22 14 7 359 350 210 205 213 218 221 226 229
304 300 306 310 300 288 291 294 290 267 279 267 290 298 324 297 285 283 322 343 353 353 350 355 5 4 7 20 26 35 19 0 6 357 349 56 50 33 214 209 206 216 225 228
303 293 312 321 318 303 297 295 285 290 281 286 300 316 318 272 277 310 332 345 353 0 0 359 11 6 16 30 31 33 24 12 359 14 11 38 60 106 89 86 169 189 198 227
287 295 317 304 316 313 304 356 325 317 314 303 300 302 297 266 280 304 322 335 348 358 359 354 360 10 23 38 37 36 22 24 31 17 8 12 14 128 121 113 136 140 187 237
272 283 297 287 320 340 274 309 315 320 318 314 312 291 251 239 272 294 308 320 335 345 353 347 8 10 29 41 43 42 41 59 57 69 71 55 100 132 139 121 86 113 43 295
260 263 262 265 285 293 297 353 335 336 338 320 320 298 241 231 282 286 295 303 315 330 342 344 1 18 37 41 53 58 53 48 64 83 83 77 104 132 108 94 93 99 93 78
236 237 221 239 241 229 259 276 329 337 317 350 313 311 260 240 292 300 292 294 304 319 328 338 349 360 25 51 65 71 69 65 73 87 92 87 88 107 111 108 103 100 100 100
230 236 233 240 245 267 272 261 266 330 318 326 319 296 286 258 277 298 302 299 297 301 310 315 336 338 355 50 83 83 76 75 83 85 88 95 98 97 101 100 96 90 85 84
249 234 226 218 223 269 271 217 214 325 314 316 319 310 284 277 282 284 288 293 294 294 296 295 297 313 331 339 97 103 101 95 95 97 97 94 95 97 97 98 99 100 100 100
246 243 245 223 247 246 254 267 273 306 310 295 305 300 296 289 279 275 276 280 280 284 287 286 279 268 274 233 212 153 137 133 123 119 118 116 116 116 116 116 115 113 111 112
263 259 250 255 256 268 272 276 281 277 288 289 285 287 288 290 283 277 278 274 272 268 271 272 269 256 246 239 213 195 176 180 172 162 151 146 143 138 131 123 113 108 106 102
261 256 261 262 265 272 280 279 280 273 263 258 265 271 279 278 279 279 274 269 268 266 262 264 263 254 243 233 228 216 203 198 199 197 189 184 178 167 156 145 143 141 127 114
260 260 263 276 288 281 282 282 267 266 262 249 252 263 269 272 270 268 264 261 259 260 259 257 258 256 250 237 232 227 221 216 215 215 214 214 213 214 215 215 217 221 226 231
Height
3132 3132 3127 3126 3126 3125 3123 3123 3121 3119 3115 3113 3111 3110 3108 3107 3106 3105 3104 3105 3106 3107 3108 3107 3107 3106 3106 3108 3111 3112 3112 3118 3120 3119 3120 3122 3120 3127 3133 3137 3140 3143 3146 3149
3134 3132 3130 3129 3127 3125 3124 3121 3119 3115 3114 3113 3111 3110 3108 3107 3105 3105 3104 3103 3103 3104 3105 3106 3106 3106 3105 3106 3109 3111 3112 3115 3118 3119 3121 3123 3123 3127 3128 3134 3137 3139 3142 3145
3133 3135 3133 3132 3128 3125 3123 3121 3118 3116 3113 3111 3110 3108 3108 3108 3105 3105 3105 3103 3103 3102 3102 3103 3103 3102 3103 3104 3105 3106 3109 3113 3113 3115 3118 3120 3121 3125 3127 3129 3132 3134 3137 3139
3134 3134 3132 3130 3129 3127 3124 3121 3117 3114 3114 3113 3112 3112 3108 3108 3107 3104 3105 3105 3104 3103 3101 3101 3101 3100 3100 3100 3100 3101 3105 3107 3109 3111 3112 3114 3117 3120 3123 3126 3126 3130 3133 3135
3136 3134 3133 3131 3130 3128 3126 3120 3118 3115 3115 3115 3113 3114 3111 3110 3109 3104 3105 3104 3104 3103 3101 3099 3098 3096 3096 3095 3095 3096 3098 3100 3101 3103 3105 3107 3109 3112 3115 3119 3122 3124 3127 3129
3135 3134 3133 3132 3130 3128 3124 3119 3117 3117 3116 3116 3115 3116 3113 3111 3110 3106 3104 3102 3100 3099 3098 3096 3094 3093 3091 3090 3089 3088 3089 3089 3092 3095 3097 3100 3103 3105 3109 3113 3116 3118 3119 3122
3134 3135 3134 3132 3130 3128 3126 3121 3120 3120 3117 3118 3115 3115 3112 3110 3109 3106 3104 3102 3100 3097 3094 3092 3090 3087 3085 3084 3082 3082 3082 3083 3084 3087 3090 3093 3096 3099 3102 3105 3109 3112 3114 3117
3134 3133 3134 3133 3130 3129 3126 3127 3128 3132 3126 3120 3115 3115 3111 3110 3108 3105 3103 3101 3098 3095 3092 3089 3085 3083 3079 3077 3077 3076 3076 3078 3080 3081 3084 3086 3088 3092 3095 3098 3102 3105 3107 3110
3135 3134 3134 3133 3132 3131 3129 3129 3129 3128 3127 3125 3115 3114 3111 3109 3107 3105 3102 3099 3097 3094 3091 3087 3083 3078 3075 3072 3070 3070 3072 3072 3073 3075 3077 3079 3082 3085 3088 3092 3095 3099 3102 3105
3137 3135 3133 3132 3131 3131 3130 3131 3131 3130 3132 3129 3115 3112 3110 3108 3106 3103 3100 3098 3096 3093 3090 3087 3081 3076 3072 3069 3068 3066 3066 3067 3068 3069 3070 3072 3075 3078 3081 3085 3088 3092 3096 3098
3136 3135 3136 3133 3130 3130 3130 3129 3131 3131 3130 3130 3127 3113 3110 3107 3106 3102 3099 3097 3096 3093 3091 3087 3082 3077 3072 3068 3066 3065 3063 3062 3062 3063 3064 3065 3066 3069 3072 3076 3080 3085 3089 3094
3134 3132 3134 3133 3131 3130 3129 3129 3129 3129 3130 3129 3128 3114 3109 3107 3105 3102 3099 3097 3095 3093 3090 3087 3083 3078 3073 3068 3065 3063 3061 3061 3061 3060 3060 3059 3060 3062 3065 3069 3073 3078 3082 3086
3134 3131 3130 3131 3132 3129 3128 3126 3127 3125 3125 3123 3125 3112 3109 3107 3104 3102 3099 3097 3095 3092 3089 3087 3084 3079 3074 3069 3066 3064 3061 3059 3058 3058 3058 3057 3057 3058 3060 3063 3068 3072 3076 3080
3132 3131 3131 3133 3131 3127 3124 3123 3123 3122 3122 3120 3114 3108 3109 3107 3103 3101 3099 3097 3094 3092 3089 3086 3083 3080 3075 3070 3066 3065 3063 3061 3059 3058 3057 3056 3055 3055 3057 3059 3063 3066 3071 3075
3130 3128 3127 3128 3125 3122 3120 3118 3117 3116 3117 3116 3110 3107 3105 3102 3101 3100 3100 3097 3095 3092 3089 3086 3083 3080 3076 3071 3068 3066 3065 3063 3061 3060 3058 3056 3055 3055 3056 3058 3061 3064 3069 3072
3127 3124 3124 3120 3119 3117 3116 3115 3113 3112 3111 3109 3108 3105 3103 3102 3102 3101 3100 3098 3095 3093 3091 3088 3085 3082 3078 3074 3071 3069 3066 3064 3062 3061 3060 3058 3057 3056 3058 3059 3060 3063 3067 3070
3124 3122 3121 3117 3118 3115 3112 3111 3110 3108 3107 3107 3105 3105 3103 3103 3102 3101 3099 3098 3096 3094 3091 3089 3086 3085 3081 3077 3074 3071 3068 3065 3063 3061 3061 3059 3057 3058 3060 3061 3063 3065 3067 3069
3121 3120 3119 3115 3114 3115 3109 3108 3107 3106 3105 3103 3102 3102 3100 3100 3101 3101 3099 3098 3096 3094 3092 3090 3088 3086 3083 3080 3077 3074 3071 3068 3066 3064 3062 3060 3058 3059 3061 3062 3064 3065 3066 3066
3117 3118 3118 3115 3111 3110 3104 3105 3106 3104 3104 3102 3101 3100 3099 3099 3099 3099 3098 3097 3096 3094 3092 3090 3088 3087 3085 3082 3079 3076 3074 3072 3069 3067 3065 3063 3060 3061 3064 3065 3066 3067 3069 3068
3112 3113 3117 3113 3111 3108 3103 3103 3103 3102 3102 3100 3100 3099 3098 3099 3098 3098 3097 3096 3095 3094 3092 3090 3089 3087 3086 3085 3082 3080 3077 3076 3074 3072 3070 3069 3068 3066 3067 3069 3069 3071 3072 3072
3107 3108 3110 3111 3110 3102 3100 3100 3101 3103 3105 3100 3098 3098 3098 3097 3098 3096 3095 3095 3094 3093 3091 3089 3089 3088 3087 3086 3085 3083 3081 3080 3078 3076 3075 3075 3075 3073 3073 3073 3074 3075 3076 3076
3102 3102 3103 3105 3105 3098 3095 3096 3099 3101 3098 3098 3097 3097 3096 3095 3095 3094 3093 3093 3092 3092 3091 3089 3088 3088 3087 3087 3086 3085 3084 3084 3083 3082 3081 3080 3079 3078 3079 3079 3079 3080 3081 3082
3097 3096 3097 3100 3097 3094 3094 3095 3096 3096 3096 3096 3096 3095 3095 3094 3092 3092 3091 3090 3090 3090 3089 3089 3088 3087 3086 3086 3086 3086 3086 3086 3086 3085 3084 3084 3083 3083 3083 3083 3084 3083 3084 3085
3086 3087 3088 3092 3092 3091 3093 3093 3092 3092 3092 3092 3092 3091 3090 3091 3089 3088 3088 3087 3087 3086 3086 3086 3086 3086 3085 3085 3084 3085 3085 3086 3087 3087 3087 3087 3087 3087 3087 3086 3086 3086 3087 3088
3080 3081 3081 3079 3083 3087 3088 3088 3089 3086 3083 3084 3086 3086 3085 3084 3085 3084 3083 3083 3083 3082 3082 3083 3083 3083 3083 3083 3082 3083 3083 3084 3085 3086 3086 3087 3087 3087 3087 3087 3087 3088 3088 3089
3066 3074 3076 3076 3082 3081 3081 3080 3080 3080 3078 3077 3077 3077 3078 3077 3078 3078 3078 3078 3077 3077 3077 3078 3079 3080 3080 3080 3080 3080 3080 3081 3082 3083 3084 3084 3085 3085 3086 3086 3087 3088 3088 3088